,,Stat5,,Stat1,,Stat2,,Stat3,,Stat4,,Wind1,,Wind1
time,status,PA1M_AVG,status,PR1M_SUM,status,RH1M_AVG,status,SR1M_AVG,status,TA1M_AVG,status,W1dAve1m,status,W1sAve1m
2000-08-13, 00:00:01,VALID,919.1,VALID,0,VALID,93.9652,VALID,-0.0169808,VALID,17.6624,VALID,131,VALID,0.320703
2000-08-13, 00:01:00,VALID,919.099,VALID,0,VALID,94.4154,VALID,-0.0509425,VALID,17.6304,VALID,168,VALID,0.00694444
2000-08-13, 00:02:00,VALID,919.114,VALID,0,VALID,94.6455,VALID,-0.0339617,VALID,17.6267,VALID,216,VALID,0
2000-08-13, 00:03:00,VALID,919.128,VALID,0,VALID,94.8706,VALID,-0.0169808,VALID,17.6329,VALID,236,VALID,0.535937
2000-08-13, 00:04:00,VALID,919.133,VALID,0,VALID,95.1643,VALID,-0.0509425,VALID,17.6467,VALID,235,VALID,0.756611
2000-08-13, 00:05:00,VALID,919.109,VALID,0,VALID,95.3703,VALID,-0.0169808,VALID,17.6239,VALID,222,VALID,0.906494
2000-08-13, 00:06:00,VALID,919.096,VALID,0,VALID,95.5357,VALID,-0.0339617,VALID,17.5916,VALID,200,VALID,0.88239
2000-08-13, 00:07:00,VALID,919.07,VALID,0,VALID,95.4759,VALID,-0.0339617,VALID,17.5753,VALID,167,VALID,0.76734
2000-08-13, 00:08:00,VALID,919.041,VALID,0,VALID,95.2724,VALID,-0.0169808,VALID,17.5462,VALID,135,VALID,1.03045
2000-08-13, 00:09:00,VALID,919.003,VALID,0,VALID,95.3945,VALID,-0.0679233,VALID,17.4975,VALID,119,VALID,1.14643
2000-08-13, 00:10:00,VALID,918.976,VALID,0,VALID,95.6641,VALID,-0.0509425,VALID,17.4818,VALID,125,VALID,0.807143
2000-08-13, 00:11:00,VALID,918.981,VALID,0,VALID,95.7073,VALID,-0.0339617,VALID,17.4878,VALID,183,VALID,0.57168
2000-08-13, 00:12:00,VALID,918.998,VALID,0,VALID,95.715,VALID,-0.0339617,VALID,17.5046,VALID,240,VALID,0.952734
2000-08-13, 00:13:00,VALID,919.026,VALID,0,VALID,95.9705,VALID,0.0509425,VALID,17.5063,VALID,241,VALID,1.31406
2000-08-13, 00:14:00,VALID,919.042,VALID,0,VALID,96.1689,VALID,0.0509425,VALID,17.4768,VALID,237,VALID,0.976774
2000-08-13, 00:15:00,VALID,919.045,VALID,0,VALID,96.5033,VALID,0.0679233,VALID,17.4743,VALID,227,VALID,0.817925
2000-08-13, 00:16:00,VALID,919.032,VALID,0,VALID,96.7831,VALID,0.0169808,VALID,17.4613,VALID,154,VALID,0.708929
2000-08-13, 00:17:00,VALID,919,VALID,0,VALID,96.8022,VALID,0.0509425,VALID,17.4293,VALID,109,VALID,1.27745
2000-08-13, 00:18:00,VALID,918.987,VALID,0,VALID,96.8746,VALID,0.0339617,VALID,17.4224,VALID,102,VALID,1.20756
2000-08-13, 00:19:00,VALID,918.977,VALID,0,VALID,96.7996,VALID,0.0169808,VALID,17.4452,VALID,100,VALID,1.17548
2000-08-13, 00:20:00,VALID,918.974,VALID,0,VALID,96.5313,VALID,0.0509425,VALID,17.4579,VALID,100,VALID,0.757813
2000-08-13, 00:21:00,VALID,918.987,VALID,0,VALID,96.235,VALID,0,VALID,17.4743,VALID,115,VALID,0.435714
2000-08-13, 00:22:00,VALID,919.011,VALID,0,VALID,96.0176,VALID,0.0169808,VALID,17.4969,VALID,123,VALID,0.104852
2000-08-13, 00:23:00,VALID,919.005,VALID,0,VALID,95.9794,VALID,-0.0169808,VALID,17.5199,VALID,174,VALID,0
2000-08-13, 00:24:00,VALID,919.012,VALID,0,VALID,95.9883,VALID,0,VALID,17.5257,VALID,263,VALID,0.373047
2000-08-13, 00:25:00,VALID,918.998,VALID,0,VALID,95.9998,VALID,0.0169808,VALID,17.5096,VALID,266,VALID,0.290752
2000-08-13, 00:26:00,VALID,918.993,VALID,0,VALID,96.0468,VALID,0,VALID,17.5096,VALID,263,VALID,0
2000-08-13, 00:27:00,VALID,918.969,VALID,0,VALID,95.9388,VALID,0,VALID,17.516,VALID,243,VALID,0
2000-08-13, 00:28:00,VALID,918.942,VALID,0,VALID,95.7696,VALID,-0.101885,VALID,17.5238,VALID,129,VALID,0.516992
2000-08-13, 00:29:00,VALID,918.921,VALID,0,VALID,95.6882,VALID,-0.0849042,VALID,17.504,VALID,120,VALID,0.936133
2000-08-13, 00:30:00,VALID,918.894,VALID,0,VALID,95.6959,VALID,-0.0849042,VALID,17.4756,VALID,122,VALID,1.02424
2000-08-13, 00:31:00,VALID,918.869,VALID,0,VALID,95.8663,VALID,-0.0679233,VALID,17.4274,VALID,125,VALID,0.955128
2000-08-13, 00:32:00,VALID,918.857,VALID,0,VALID,95.9413,VALID,-0.0509425,VALID,17.4043,VALID,128,VALID,0.973437
2000-08-13, 00:33:00,VALID,918.844,VALID,0,VALID,95.6755,VALID,-0.0849042,VALID,17.4299,VALID,136,VALID,0.698317
2000-08-13, 00:34:00,VALID,918.845,VALID,0,VALID,95.3207,VALID,-0.0849042,VALID,17.4883,VALID,144,VALID,0.122738
2000-08-13, 00:35:00,VALID,918.857,VALID,0,VALID,95.0893,VALID,-0.0339617,VALID,17.504,VALID,213,VALID,0.035773
2000-08-13, 00:36:00,VALID,918.874,VALID,0,VALID,95.1796,VALID,-0.0849042,VALID,17.5268,VALID,247,VALID,0.428168
2000-08-13, 00:37:00,VALID,918.874,VALID,0,VALID,95.4911,VALID,-0.0849042,VALID,17.5434,VALID,245,VALID,0.562934
2000-08-13, 00:38:00,VALID,918.865,VALID,0,VALID,95.7315,VALID,-0.0849042,VALID,17.5303,VALID,226,VALID,0.325597
2000-08-13, 00:39:00,VALID,918.855,VALID,0,VALID,95.8523,VALID,-0.0849042,VALID,17.5231,VALID,225,VALID,0.00422297
2000-08-13, 00:40:00,VALID,918.823,VALID,0,VALID,95.7556,VALID,-0.0679233,VALID,17.5176,VALID,199,VALID,0
2000-08-13, 00:41:00,VALID,918.808,VALID,0,VALID,95.5585,VALID,-0.0849042,VALID,17.5044,VALID,175,VALID,0
2000-08-13, 00:42:00,VALID,918.806,VALID,0,VALID,95.3996,VALID,-0.0849042,VALID,17.5012,VALID,186,VALID,0
2000-08-13, 00:43:00,VALID,918.797,VALID,0,VALID,95.3894,VALID,-0.0679233,VALID,17.5173,VALID,187,VALID,0
2000-08-13, 00:44:00,VALID,918.792,VALID,0,VALID,95.2012,VALID,-0.0849042,VALID,17.563,VALID,195,VALID,0
2000-08-13, 00:45:00,VALID,918.787,VALID,0,VALID,94.9978,VALID,-0.0679233,VALID,17.5688,VALID,256,VALID,0
2000-08-13, 00:46:00,VALID,918.787,VALID,0,VALID,94.8134,VALID,-0.0679233,VALID,17.5882,VALID,266,VALID,0
2000-08-13, 00:47:00,VALID,918.787,VALID,0,VALID,94.6252,VALID,-0.101885,VALID,17.6338,VALID,260,VALID,0
2000-08-13, 00:48:00,VALID,918.794,VALID,0,VALID,94.6786,VALID,-0.101885,VALID,17.6403,VALID,245,VALID,0
2000-08-13, 00:49:00,VALID,918.793,VALID,0,VALID,94.952,VALID,-0.0849042,VALID,17.6237,VALID,224,VALID,0
2000-08-13, 00:50:00,VALID,918.784,VALID,0,VALID,95.1236,VALID,-0.101885,VALID,17.6177,VALID,219,VALID,0
2000-08-13, 00:51:00,VALID,918.792,VALID,0,VALID,95.0385,VALID,-0.0679233,VALID,17.5884,VALID,218,VALID,0.247677
2000-08-13, 00:52:00,VALID,918.789,VALID,0,VALID,94.9113,VALID,-0.0509425,VALID,17.5819,VALID,216,VALID,0.517628
2000-08-13, 00:53:00,VALID,918.784,VALID,0,VALID,94.8744,VALID,-0.101885,VALID,17.5757,VALID,221,VALID,0.542067
2000-08-13, 00:54:00,VALID,918.793,VALID,0,VALID,94.5667,VALID,-0.0849042,VALID,17.5824,VALID,212,VALID,0.573661
2000-08-13, 00:55:00,VALID,918.781,VALID,0,VALID,94.2081,VALID,-0.0849042,VALID,17.5979,VALID,169,VALID,0.633224
2000-08-13, 00:56:00,VALID,918.753,VALID,0,VALID,94.2412,VALID,-0.0849042,VALID,17.6334,VALID,158,VALID,0.763822
2000-08-13, 00:57:00,VALID,918.75,VALID,0,VALID,94.423,VALID,-0.101885,VALID,17.6274,VALID,156,VALID,0.600195
2000-08-13, 00:58:00,VALID,918.734,VALID,0,VALID,94.5947,VALID,-0.0339617,VALID,17.6138,VALID,153,VALID,0.201858
2000-08-13, 00:59:00,VALID,918.727,VALID,0,VALID,94.5285,VALID,-0.0339617,VALID,17.5882,VALID,153,VALID,0
2000-08-13, 01:00:00,VALID,918.742,VALID,0,VALID,94.7142,VALID,-0.0679233,VALID,17.5496,VALID,183,VALID,0.0653212
2000-08-13, 01:01:00,VALID,918.756,VALID,0,VALID,95.0207,VALID,-0.0509425,VALID,17.5369,VALID,226,VALID,0.572852
2000-08-13, 01:02:00,VALID,918.762,VALID,0,VALID,95.308,VALID,-0.0849042,VALID,17.5206,VALID,219,VALID,0.665625
2000-08-13, 01:03:00,VALID,918.766,VALID,0,VALID,95.233,VALID,-0.0849042,VALID,17.5143,VALID,210,VALID,1.03786
2000-08-13, 01:04:00,VALID,918.771,VALID,0,VALID,95.0639,VALID,-0.0509425,VALID,17.5139,VALID,200,VALID,1.09535
2000-08-13, 01:05:00,VALID,918.782,VALID,0,VALID,94.9545,VALID,-0.0339617,VALID,17.5173,VALID,186,VALID,0.487946
2000-08-13, 01:06:00,VALID,918.777,VALID,0,VALID,95.0486,VALID,-0.0339617,VALID,17.4975,VALID,163,VALID,0.558894
2000-08-13, 01:07:00,VALID,918.782,VALID,0,VALID,95.1745,VALID,-0.0509425,VALID,17.4583,VALID,152,VALID,0.910773
2000-08-13, 01:08:00,VALID,918.786,VALID,0,VALID,95.4543,VALID,-0.0509425,VALID,17.4431,VALID,153,VALID,0.720189
2000-08-13, 01:09:00,VALID,918.798,VALID,0,VALID,95.6539,VALID,-0.0339617,VALID,17.4271,VALID,154,VALID,0.546007
2000-08-13, 01:10:00,VALID,918.797,VALID,0,VALID,95.6488,VALID,-0.0339617,VALID,17.391,VALID,159,VALID,0.101563
2000-08-13, 01:11:00,VALID,918.787,VALID,0,VALID,95.659,VALID,-0.0509425,VALID,17.3817,VALID,159,VALID,0
2000-08-13, 01:12:00,VALID,918.785,VALID,0,VALID,95.7289,VALID,-0.0679233,VALID,17.3821,VALID,171,VALID,0
2000-08-13, 01:13:00,VALID,918.772,VALID,0,VALID,95.8218,VALID,-0.0509425,VALID,17.372,VALID,205,VALID,0.121194
2000-08-13, 01:14:00,VALID,918.758,VALID,0,VALID,95.851,VALID,-0.0509425,VALID,17.3559,VALID,223,VALID,0
2000-08-13, 01:15:00,VALID,918.741,VALID,0,VALID,95.9858,VALID,-0.0509425,VALID,17.3524,VALID,194,VALID,0
2000-08-13, 01:16:00,VALID,918.729,VALID,0,VALID,95.6463,VALID,-0.0339617,VALID,17.3395,VALID,167,VALID,0
2000-08-13, 01:17:00,VALID,918.714,VALID,0,VALID,95.3996,VALID,-0.0169808,VALID,17.2876,VALID,145,VALID,0
2000-08-13, 01:18:00,VALID,918.703,VALID,0,VALID,95.4466,VALID,-0.0339617,VALID,17.22,VALID,139,VALID,0
2000-08-13, 01:19:00,VALID,918.702,VALID,0,VALID,95.7582,VALID,-0.0509425,VALID,17.1552,VALID,139,VALID,0
2000-08-13, 01:20:00,VALID,918.692,VALID,0,VALID,96.1943,VALID,-0.0169808,VALID,17.1524,VALID,155,VALID,0
2000-08-13, 01:21:00,VALID,918.698,VALID,0,VALID,96.3431,VALID,-0.0339617,VALID,17.1522,VALID,198,VALID,0
2000-08-13, 01:22:00,VALID,918.683,VALID,0,VALID,96.4105,VALID,-0.0339617,VALID,17.1621,VALID,250,VALID,0
2000-08-13, 01:23:00,VALID,918.672,VALID,0,VALID,96.4932,VALID,-0.101885,VALID,17.1425,VALID,233,VALID,0
2000-08-13, 01:24:00,VALID,918.662,VALID,0,VALID,96.5351,VALID,-0.0679233,VALID,17.1294,VALID,233,VALID,0
2000-08-13, 01:25:00,VALID,918.658,VALID,0,VALID,96.5148,VALID,-0.0339617,VALID,17.1234,VALID,233,VALID,0
2000-08-13, 01:26:00,VALID,918.63,VALID,0,VALID,96.4881,VALID,-0.0339617,VALID,17.1135,VALID,232,VALID,0
2000-08-13, 01:27:00,VALID,918.62,VALID,0,VALID,96.5339,VALID,-0.0339617,VALID,17.107,VALID,229,VALID,0
2000-08-13, 01:28:00,VALID,918.61,VALID,0,VALID,96.5415,VALID,-0.0509425,VALID,17.104,VALID,228,VALID,0
2000-08-13, 01:29:00,VALID,918.622,VALID,0,VALID,96.5466,VALID,-0.0339617,VALID,17.0878,VALID,227,VALID,0
2000-08-13, 01:30:00,VALID,918.613,VALID,0,VALID,96.7742,VALID,0,VALID,17.0741,VALID,198,VALID,0
2000-08-13, 01:31:00,VALID,918.599,VALID,0,VALID,96.6013,VALID,-0.0339617,VALID,17.0751,VALID,147,VALID,0
2000-08-13, 01:32:00,VALID,918.595,VALID,0,VALID,96.3215,VALID,-0.0339617,VALID,17.0261,VALID,137,VALID,0
2000-08-13, 01:33:00,VALID,918.576,VALID,0,VALID,96.4525,VALID,0,VALID,17.0233,VALID,138,VALID,0
2000-08-13, 01:34:00,VALID,918.563,VALID,0,VALID,96.8149,VALID,-0.0339617,VALID,17.0131,VALID,153,VALID,0
2000-08-13, 01:35:00,VALID,918.545,VALID,0,VALID,96.8823,VALID,-0.0509425,VALID,17.0528,VALID,158,VALID,0
2000-08-13, 01:36:00,VALID,918.516,VALID,0,VALID,96.5885,VALID,-0.0339617,VALID,17.0749,VALID,158,VALID,0
2000-08-13, 01:37:00,VALID,918.513,VALID,0,VALID,96.3698,VALID,-0.0169808,VALID,17.0749,VALID,158,VALID,0
2000-08-13, 01:38:00,VALID,918.485,VALID,0,VALID,96.2427,VALID,0,VALID,17.0747,VALID,158,VALID,0
2000-08-13, 01:39:00,VALID,918.477,VALID,0,VALID,95.9298,VALID,-0.0169808,VALID,17.0392,VALID,158,VALID,0
2000-08-13, 01:40:00,VALID,918.475,VALID,0,VALID,95.9082,VALID,-0.0339617,VALID,17.0071,VALID,158,VALID,0
2000-08-13, 01:41:00,VALID,918.467,VALID,0,VALID,96.1676,VALID,-0.0509425,VALID,17.0362,VALID,158,VALID,0
2000-08-13, 01:42:00,VALID,918.447,VALID,0,VALID,95.9502,VALID,-0.0849042,VALID,17.1367,VALID,158,VALID,0
2000-08-13, 01:43:00,VALID,918.456,VALID,0,VALID,95.6437,VALID,0,VALID,17.1453,VALID,158,VALID,0
2000-08-13, 01:44:00,VALID,918.446,VALID,0,VALID,95.2801,VALID,0.0339617,VALID,17.1163,VALID,158,VALID,0
2000-08-13, 01:45:00,VALID,918.412,VALID,0,VALID,95.3144,VALID,0.0169808,VALID,17.1003,VALID,158,VALID,0
2000-08-13, 01:46:00,VALID,918.395,VALID,0,VALID,95.5496,VALID,0,VALID,17.0939,VALID,158,VALID,0
2000-08-13, 01:47:00,VALID,918.37,VALID,0,VALID,95.2101,VALID,0,VALID,17.0648,VALID,157,VALID,0
2000-08-13, 01:48:00,VALID,918.353,VALID,0,VALID,94.9227,VALID,-0.0169808,VALID,17.0131,VALID,172,VALID,0
2000-08-13, 01:49:00,VALID,918.342,VALID,0,VALID,95.3767,VALID,0.0169808,VALID,16.991,VALID,209,VALID,0
2000-08-13, 01:50:00,VALID,918.324,VALID,0,VALID,95.542,VALID,0,VALID,16.9522,VALID,213,VALID,0
2000-08-13, 01:51:00,VALID,918.3,VALID,0,VALID,95.8357,VALID,0,VALID,16.9131,VALID,213,VALID,0
2000-08-13, 01:52:00,VALID,918.29,VALID,0,VALID,95.9807,VALID,0.0169808,VALID,16.8872,VALID,213,VALID,0
2000-08-13, 01:53:00,VALID,918.262,VALID,0,VALID,96.0926,VALID,-0.0169808,VALID,16.8519,VALID,208,VALID,0
2000-08-13, 01:54:00,VALID,918.235,VALID,0,VALID,95.9451,VALID,0.0509425,VALID,16.7934,VALID,198,VALID,0
2000-08-13, 01:55:00,VALID,918.211,VALID,0,VALID,96.2096,VALID,0.0169808,VALID,16.7579,VALID,195,VALID,0
2000-08-13, 01:56:00,VALID,918.197,VALID,0,VALID,96.2935,VALID,0,VALID,16.7675,VALID,195,VALID,0
2000-08-13, 01:57:00,VALID,918.187,VALID,0,VALID,95.926,VALID,0,VALID,16.7645,VALID,195,VALID,0
2000-08-13, 01:58:00,VALID,918.174,VALID,0,VALID,95.5407,VALID,0,VALID,16.7288,VALID,195,VALID,0
2000-08-13, 01:59:00,VALID,918.18,VALID,0,VALID,95.631,VALID,0,VALID,16.7163,VALID,195,VALID,0
2000-08-13, 02:00:00,VALID,918.181,VALID,0,VALID,96.0456,VALID,0.0169808,VALID,16.7232,VALID,195,VALID,0
2000-08-13, 02:01:00,VALID,918.171,VALID,0,VALID,96.3775,VALID,0,VALID,16.7161,VALID,195,VALID,0
2000-08-13, 02:02:00,VALID,918.157,VALID,0,VALID,96.2706,VALID,-0.0169808,VALID,16.7744,VALID,195,VALID,0
2000-08-13, 02:03:00,VALID,918.141,VALID,0,VALID,95.8256,VALID,0,VALID,16.8295,VALID,195,VALID,0
2000-08-13, 02:04:00,VALID,918.146,VALID,0,VALID,95.6132,VALID,-0.0169808,VALID,16.8521,VALID,195,VALID,0
2000-08-13, 02:05:00,VALID,918.118,VALID,0,VALID,95.5852,VALID,-0.0169808,VALID,16.8523,VALID,195,VALID,0
2000-08-13, 02:06:00,VALID,918.118,VALID,0,VALID,95.5852,VALID,0,VALID,16.8683,VALID,195,VALID,0
2000-08-13, 02:07:00,VALID,918.104,VALID,0,VALID,95.3462,VALID,0.0169808,VALID,16.8842,VALID,179,VALID,0
2000-08-13, 02:08:00,VALID,918.099,VALID,0,VALID,94.7867,VALID,0,VALID,16.8648,VALID,157,VALID,0
2000-08-13, 02:09:00,VALID,918.1,VALID,0,VALID,94.9176,VALID,0.0509425,VALID,16.8099,VALID,165,VALID,0.399639
2000-08-13, 02:10:00,VALID,918.079,VALID,0,VALID,95.4085,VALID,0,VALID,16.7714,VALID,186,VALID,0.704127
2000-08-13, 02:11:00,VALID,918.063,VALID,0,VALID,95.804,VALID,0.0509425,VALID,16.7292,VALID,188,VALID,0.498661
2000-08-13, 02:12:00,VALID,918.05,VALID,0,VALID,95.9756,VALID,0.0509425,VALID,16.7161,VALID,179,VALID,0.453125
2000-08-13, 02:13:00,VALID,918.037,VALID,0,VALID,95.9235,VALID,-0.0849042,VALID,16.7016,VALID,176,VALID,0.387952
2000-08-13, 02:14:00,VALID,918.011,VALID,0,VALID,95.6844,VALID,-0.0849042,VALID,16.6821,VALID,167,VALID,0.395765
2000-08-13, 02:15:00,VALID,917.992,VALID,0,VALID,95.6463,VALID,-0.0339617,VALID,16.6564,VALID,169,VALID,0.23112
2000-08-13, 02:16:00,VALID,917.97,VALID,0,VALID,96.0112,VALID,-0.0679233,VALID,16.6532,VALID,174,VALID,0.0770399
2000-08-13, 02:17:00,VALID,917.96,VALID,0,VALID,96.1486,VALID,-0.101885,VALID,16.6431,VALID,174,VALID,0
2000-08-13, 02:18:00,VALID,917.946,VALID,0,VALID,96.2223,VALID,-0.101885,VALID,16.676,VALID,174,VALID,0
2000-08-13, 02:19:00,VALID,917.95,VALID,0,VALID,96.0812,VALID,-0.101885,VALID,16.7085,VALID,174,VALID,0
2000-08-13, 02:20:00,VALID,917.947,VALID,0,VALID,95.8764,VALID,-0.101885,VALID,16.7242,VALID,174,VALID,0
2000-08-13, 02:21:00,VALID,917.943,VALID,0,VALID,95.7442,VALID,-0.101885,VALID,16.7372,VALID,179,VALID,0
2000-08-13, 02:22:00,VALID,917.932,VALID,0,VALID,95.6577,VALID,-0.0849042,VALID,16.7378,VALID,176,VALID,0
2000-08-13, 02:23:00,VALID,917.906,VALID,0,VALID,95.453,VALID,-0.101885,VALID,16.7016,VALID,166,VALID,0.310156
2000-08-13, 02:24:00,VALID,917.893,VALID,0,VALID,95.4797,VALID,-0.0849042,VALID,16.6693,VALID,160,VALID,0.558789
2000-08-13, 02:25:00,VALID,917.884,VALID,0,VALID,95.4555,VALID,-0.0849042,VALID,16.6082,VALID,160,VALID,0.379102
2000-08-13, 02:26:00,VALID,917.88,VALID,0,VALID,95.3513,VALID,-0.101885,VALID,16.5467,VALID,159,VALID,0.664063
2000-08-13, 02:27:00,VALID,917.864,VALID,0,VALID,95.5573,VALID,-0.101885,VALID,16.4788,VALID,146,VALID,0.828125
2000-08-13, 02:28:00,VALID,917.849,VALID,0,VALID,96.3991,VALID,0.0169808,VALID,16.4485,VALID,148,VALID,0.626562
2000-08-13, 02:29:00,VALID,917.825,VALID,0,VALID,97.0717,VALID,0,VALID,16.4748,VALID,148,VALID,0.620988
2000-08-13, 02:30:00,VALID,917.81,VALID,0,VALID,97.2154,VALID,0.0339617,VALID,16.5553,VALID,148,VALID,0.717694
2000-08-13, 02:31:00,VALID,917.777,VALID,0,VALID,96.7869,VALID,0.0339617,VALID,16.6324,VALID,145,VALID,0.483774
2000-08-13, 02:32:00,VALID,917.765,VALID,0,VALID,96.0799,VALID,0.0169808,VALID,16.6713,VALID,173,VALID,0.0140224
2000-08-13, 02:33:00,VALID,917.774,VALID,0,VALID,95.7836,VALID,0.0169808,VALID,16.6782,VALID,183,VALID,0
2000-08-13, 02:34:00,VALID,917.747,VALID,0,VALID,95.9159,VALID,0,VALID,16.6526,VALID,202,VALID,0
2000-08-13, 02:35:00,VALID,917.733,VALID,0,VALID,96.1117,VALID,0.0169808,VALID,16.6397,VALID,202,VALID,0
2000-08-13, 02:36:00,VALID,917.762,VALID,0,VALID,96.5339,VALID,0,VALID,16.6263,VALID,201,VALID,0
2000-08-13, 02:37:00,VALID,917.772,VALID,0,VALID,96.2121,VALID,-0.0169808,VALID,16.6201,VALID,199,VALID,0
2000-08-13, 02:38:00,VALID,917.781,VALID,0,VALID,95.8701,VALID,0,VALID,16.6108,VALID,199,VALID,0
2000-08-13, 02:39:00,VALID,917.781,VALID,0,VALID,96.1091,VALID,0,VALID,16.6007,VALID,199,VALID,0
2000-08-13, 02:40:00,VALID,917.779,VALID,0,VALID,96.4677,VALID,0,VALID,16.6461,VALID,199,VALID,0
2000-08-13, 02:41:00,VALID,917.783,VALID,0,VALID,96.6598,VALID,0.0169808,VALID,16.6814,VALID,199,VALID,0
2000-08-13, 02:42:00,VALID,917.781,VALID,0,VALID,96.6801,VALID,0,VALID,16.7296,VALID,199,VALID,0
2000-08-13, 02:43:00,VALID,917.783,VALID,0,VALID,96.3126,VALID,0.101885,VALID,16.8065,VALID,199,VALID,0
2000-08-13, 02:44:00,VALID,917.777,VALID,0,VALID,96.0036,VALID,0.0849042,VALID,16.8769,VALID,199,VALID,0
2000-08-13, 02:45:00,VALID,917.772,VALID,0,VALID,95.3195,VALID,0.0849042,VALID,16.9744,VALID,199,VALID,0
2000-08-13, 02:46:00,VALID,917.775,VALID,0,VALID,94.6582,VALID,0.101885,VALID,16.9897,VALID,189,VALID,0
2000-08-13, 02:47:00,VALID,917.765,VALID,0,VALID,93.5494,VALID,0.101885,VALID,16.9643,VALID,144,VALID,0
2000-08-13, 02:48:00,VALID,917.764,VALID,0,VALID,93.5418,VALID,0.101885,VALID,16.8702,VALID,140,VALID,0
2000-08-13, 02:49:00,VALID,917.754,VALID,0,VALID,93.9423,VALID,0.101885,VALID,16.7998,VALID,139,VALID,0
2000-08-13, 02:50:00,VALID,917.76,VALID,0,VALID,94.395,VALID,0.101885,VALID,16.7611,VALID,139,VALID,0
2000-08-13, 02:51:00,VALID,917.765,VALID,0,VALID,95.2292,VALID,0.101885,VALID,16.7385,VALID,149,VALID,0
2000-08-13, 02:52:00,VALID,917.745,VALID,0,VALID,94.9316,VALID,0.101885,VALID,16.7286,VALID,157,VALID,0
2000-08-13, 02:53:00,VALID,917.741,VALID,0,VALID,95.4543,VALID,0.0849042,VALID,16.7314,VALID,158,VALID,0.226162
2000-08-13, 02:54:00,VALID,917.735,VALID,0,VALID,95.3335,VALID,0.118866,VALID,16.813,VALID,153,VALID,0.641026
2000-08-13, 02:55:00,VALID,917.726,VALID,0,VALID,94.2628,VALID,0.101885,VALID,16.9191,VALID,128,VALID,0.639732
2000-08-13, 02:56:00,VALID,917.721,VALID,0,VALID,92.6504,VALID,0.101885,VALID,17.0413,VALID,139,VALID,0.735742
2000-08-13, 02:57:00,VALID,917.716,VALID,0,VALID,92.0235,VALID,0.0509425,VALID,17.0125,VALID,146,VALID,0.832422
2000-08-13, 02:58:00,VALID,917.71,VALID,0,VALID,92.9111,VALID,0,VALID,17.0112,VALID,143,VALID,0.7375
2000-08-13, 02:59:00,VALID,917.708,VALID,0,VALID,93.1781,VALID,-0.0169808,VALID,17.0495,VALID,148,VALID,0.714316
2000-08-13, 03:00:00,VALID,917.691,VALID,0,VALID,93.613,VALID,-0.0169808,VALID,17.062,VALID,150,VALID,0.730903
2000-08-13, 03:01:00,VALID,917.688,VALID,0,VALID,93.7122,VALID,0,VALID,17.0857,VALID,172,VALID,0.76875
2000-08-13, 03:02:00,VALID,917.681,VALID,0,VALID,94.1038,VALID,0,VALID,17.1014,VALID,177,VALID,0.927365
2000-08-13, 03:03:00,VALID,917.668,VALID,0,VALID,93.5392,VALID,-0.0339617,VALID,17.1561,VALID,175,VALID,0.795608
2000-08-13, 03:04:00,VALID,917.657,VALID,0,VALID,93.0357,VALID,-0.0509425,VALID,17.2338,VALID,181,VALID,0.704728
2000-08-13, 03:05:00,VALID,917.65,VALID,0,VALID,92.8996,VALID,0,VALID,17.259,VALID,180,VALID,0.727965
2000-08-13, 03:06:00,VALID,917.638,VALID,0,VALID,92.8131,VALID,0,VALID,17.2881,VALID,175,VALID,0.96183
2000-08-13, 03:07:00,VALID,917.623,VALID,0,VALID,92.4444,VALID,-0.0169808,VALID,17.298,VALID,158,VALID,0.903372
2000-08-13, 03:08:00,VALID,917.623,VALID,0,VALID,92.5932,VALID,-0.0169808,VALID,17.2527,VALID,154,VALID,0.799479
2000-08-13, 03:09:00,VALID,917.637,VALID,0,VALID,92.5728,VALID,0,VALID,17.1462,VALID,147,VALID,0.562109
2000-08-13, 03:10:00,VALID,917.633,VALID,0,VALID,93.1069,VALID,0.0169808,VALID,17.0398,VALID,142,VALID,0.47973
2000-08-13, 03:11:00,VALID,917.633,VALID,0,VALID,93.571,VALID,0,VALID,16.975,VALID,142,VALID,0.482897
2000-08-13, 03:12:00,VALID,917.621,VALID,0,VALID,94.2729,VALID,0,VALID,16.9561,VALID,130,VALID,0.544271
2000-08-13, 03:13:00,VALID,917.619,VALID,0,VALID,93.8876,VALID,0.0169808,VALID,16.9654,VALID,129,VALID,0.330273
2000-08-13, 03:14:00,VALID,917.619,VALID,0,VALID,93.8851,VALID,-0.0169808,VALID,16.9038,VALID,138,VALID,0.341211
2000-08-13, 03:15:00,VALID,917.622,VALID,0,VALID,93.833,VALID,0,VALID,16.8554,VALID,217,VALID,0.373197
2000-08-13, 03:16:00,VALID,917.631,VALID,0,VALID,94.0148,VALID,0,VALID,16.7688,VALID,245,VALID,0
2000-08-13, 03:17:00,VALID,917.637,VALID,0,VALID,94.5591,VALID,0,VALID,16.681,VALID,247,VALID,0
2000-08-13, 03:18:00,VALID,917.638,VALID,0,VALID,94.9914,VALID,-0.0339617,VALID,16.6168,VALID,247,VALID,0
2000-08-13, 03:19:00,VALID,917.647,VALID,0,VALID,95.5751,VALID,0,VALID,16.5749,VALID,247,VALID,0
2000-08-13, 03:20:00,VALID,917.647,VALID,0,VALID,95.8065,VALID,-0.0509425,VALID,16.5811,VALID,247,VALID,0
2000-08-13, 03:21:00,VALID,917.658,VALID,0,VALID,95.8714,VALID,0,VALID,16.5977,VALID,247,VALID,0
2000-08-13, 03:22:00,VALID,917.664,VALID,0,VALID,95.748,VALID,-0.0169808,VALID,16.6199,VALID,249,VALID,0
2000-08-13, 03:23:00,VALID,917.678,VALID,0,VALID,95.4746,VALID,0.0169808,VALID,16.6748,VALID,255,VALID,0
2000-08-13, 03:24:00,VALID,917.677,VALID,0,VALID,95.3818,VALID,0,VALID,16.7428,VALID,255,VALID,0
2000-08-13, 03:25:00,VALID,917.666,VALID,0,VALID,94.2335,VALID,-0.0169808,VALID,16.7785,VALID,185,VALID,0
2000-08-13, 03:26:00,VALID,917.646,VALID,0,VALID,94.259,VALID,-0.0169808,VALID,16.704,VALID,124,VALID,0
2000-08-13, 03:27:00,VALID,917.638,VALID,0,VALID,94.4942,VALID,0.0169808,VALID,16.6225,VALID,115,VALID,0
2000-08-13, 03:28:00,VALID,917.641,VALID,0,VALID,95.1236,VALID,0,VALID,16.5977,VALID,115,VALID,0
2000-08-13, 03:29:00,VALID,917.624,VALID,0,VALID,95.3029,VALID,0,VALID,16.5938,VALID,115,VALID,0
2000-08-13, 03:30:00,VALID,917.619,VALID,0,VALID,95.0715,VALID,0,VALID,16.627,VALID,115,VALID,0
2000-08-13, 03:31:00,VALID,917.599,VALID,0,VALID,94.9049,VALID,-0.0339617,VALID,16.6201,VALID,115,VALID,0
2000-08-13, 03:32:00,VALID,917.587,VALID,0,VALID,94.8375,VALID,0.0169808,VALID,16.6362,VALID,115,VALID,0
2000-08-13, 03:33:00,VALID,917.562,VALID,0,VALID,94.6265,VALID,0,VALID,16.6203,VALID,116,VALID,0
2000-08-13, 03:34:00,VALID,917.555,VALID,0,VALID,95.2114,VALID,-0.0169808,VALID,16.607,VALID,133,VALID,0.247545
2000-08-13, 03:35:00,VALID,917.553,VALID,0,VALID,95.1033,VALID,0,VALID,16.6722,VALID,154,VALID,0.504434
2000-08-13, 03:36:00,VALID,917.561,VALID,0,VALID,94.409,VALID,0,VALID,16.7393,VALID,178,VALID,0
2000-08-13, 03:37:00,VALID,917.561,VALID,0,VALID,94.1458,VALID,0,VALID,16.7716,VALID,189,VALID,0
2000-08-13, 03:38:00,VALID,917.566,VALID,0,VALID,94.1089,VALID,0.0169808,VALID,16.7619,VALID,186,VALID,0
2000-08-13, 03:39:00,VALID,917.552,VALID,0,VALID,94.4522,VALID,0,VALID,16.7333,VALID,178,VALID,0
2000-08-13, 03:40:00,VALID,917.541,VALID,0,VALID,93.8457,VALID,-0.0169808,VALID,16.7357,VALID,160,VALID,0.444901